DMSP 5D-2 F13 DEB, 40400

Orbit data source: Space-Track

DMSP 5D-2 F13 DEB, 40400 is space debris in SSO originally from a launch on Fri, 24 Mar 1995 UTC launched from the Air Force Western Test Range (AFWTR). Debris objects in space refer to the collection of defunct objects orbiting the Earth. Examples of debris include non-operational satellites, rocket bodies, and fragments generated from explosions, collisions, or faulty payload assembly.

Loading next visibility...
Identifier
40400, 1995-015M
Orbit
SSO
Country
Flag of USUS
Related business
Manufacturer
Unknown
Mission
Spacecraft
Bus & Motor
Unknown
Mass
Unknown
Launch date (UTC)
1995-03-24 (31 years ago)
Launch vehicle
Unknown
Launch site
Air Force Western Test Range (AFWTR)
Object type
Payload
Rocket body
Debris
Shape & HBR
Unknown shape, 0.1 m
Radar Cross Section
Small (<0.1 m²)

Expand to show TLE details & history
Last TLE update: 14 hours ago

TLE from 14 hours ago
0 DMSP 5D-2 F13 DEB
1 40400U 95015M   26133.36534067  .00002003  00000-0  55206-3 0  9993
2 40400  98.4686 163.3899 0132593 112.2713 249.2599 14.42878447586110
Epoch: 2026-05-13T08:46Z
TLE epoch observation values (Epoch: 2026-05-13T08:46:05.433Z)
Latitude
-0.00003°
Longitude
160.74086°
Altitude
786.519 km
Speed
7.442 km/s
True Right ascension
10h 53m 33s
True Declination
0° 00' 00"
Sunlit
Object was in daylight at epoch
Visualization orbit readout
Latitude
Unknown
Longitude
Unknown
Altitude
Unknown
Speed
Unknown
Apparent Right ascension
Unknown
Apparent Declination
Unknown
Sunlit
N/A
Visualization observer readout
Local Sidereal Time
07:19:18
Azimuth
Unknown
Elevation
Unknown
Doppler factor
Unknown
Orbital elements
Apogee altitude
840.582 km
Perigee altitude
651.657 km
Semi-major axis
7,124.257 km
Eccentricity
0.01326
Inclination
98.4686°
RAAN
163.3899°
Arg. of periapsis
112.2713°
True anomaly
247.8474°
Mean anomaly
249.2599°
Eccentric anomaly
248.5528°
Mean motion
3.60939 °/min
Orbital period
99.74 mins
BSTAR
0.00055206
Loading maneuver chart data...
Computing Atmospheric mass density...

Documentation

Showing up to 5 results
|